Tracking 25722 objects as of 29-May-2022
HD Live streaming from Space Station
objects crossing your sky now

OSCAR 32

Track OSCAR 32 now!
10-day predictions
OSCAR 32 is classified as:


NORAD ID: 19071
Int'l Code: 1988-033B
Perigee: 1,020.4 km
Apogee: 1,304.8 km
Inclination: 90.3 °
Period: 108.5 minutes
Semi major axis: 7533 km
RCS: 1.686 m2 (large)
Launch date: April 26, 1988
Source: United States (US)
Launch site: AIR FORCE WESTERN TEST RANGE (AFWTR)
aabbcc
Your satellite tracking list
Your tracking list is empty




NASA's NSSDC Master Catalog

Two Line Element Set (TLE):
1 19071U 88033B   22148.78777677  .00000072  00000-0  12706-3 0  9991
2 19071  90.3303 336.2128 0188734 165.7542 206.8122 13.27699006650942
Source of the keplerian elements: AFSPC